Retour au catalogue

ONEWEB-0255

ActifCommunicationsPO
NORAD 48973·PAYLOAD·🇬🇧 United Kingdom

Lancé Jul 1, 2021 depuis Vostochny Cosmodrome

Loading…

Prochains Passages (prochaines 24 heures)

TLE

FraisSource: CelesTrak SupGP

Époque: Sep 14, 2026, 14:10 UTC

1 48973C 21060G   26257.59045556 -.00000122  00000+0 -32009-3 0  2571
2 48973  87.9148 211.0277 0002058  75.1522  28.4752 13.16591143    10

Suivez ONEWEB-0255 en temps réel avec AllMySat

Download on the App Store